• In Portugal
  • List of Countries
  • For 7 days
  • Water Temperature
  • Satellite Maps
  • Weather Map
  • Weather Widgets
  • user-avatar
    Login

    Hourly Weather Belize

    Today, 20 November, Monday

    Time Temperature Precipitation Wind Pressure Humidity
    00:00 +21°C° 0 mm 2 mps 761 mmHg 98%
    01:00 +21°C° 0.7 mm 3 mps 761 mmHg 98%
    02:00 +21°C° 0.7 mm 3 mps 761 mmHg 98%
    03:00 +21°C° 0.7 mm 3 mps 760 mmHg 99%
    04:00 +20°C° 0.5 mm 3 mps 761 mmHg 99%
    05:00 +20°C° 0.5 mm 4 mps 761 mmHg 99%
    06:00 +20°C° 0 mm 4 mps 761 mmHg 98%
    07:00 +21°C° 0.2 mm 4 mps 761 mmHg 93%
    08:00 +23°C° 0.2 mm 4 mps 761 mmHg 87%
    09:00 +26°C° 0.2 mm 4 mps 762 mmHg 81%
    10:00 +28°C° 0.2 mm 4 mps 761 mmHg 73%
    11:00 +29°C° 0.2 mm 4 mps 761 mmHg 64%
    12:00 +31°C° 0.2 mm 3 mps 761 mmHg 55%
    13:00 +31°C° 0.1 mm 3 mps 760 mmHg 55%
    14:00 +31°C° 0.1 mm 3 mps 760 mmHg 55%
    15:00 +31°C° 0.1 mm 3 mps 759 mmHg 54%
    16:00 +29°C° 0.1 mm 3 mps 759 mmHg 63%
    17:00 +27°C° 0.1 mm 3 mps 759 mmHg 71%
    18:00 +25°C° 0.1 mm 3 mps 759 mmHg 79%
    19:00 +25°C° 0.5 mm 3 mps 759 mmHg 82%
    20:00 +24°C° 0.5 mm 2 mps 760 mmHg 85%
    21:00 +24°C° 0.5 mm 2 mps 760 mmHg 88%
    22:00 +23°C° 1.1 mm 2 mps 760 mmHg 90%
    23:00 +23°C° 1.1 mm 2 mps 760 mmHg 91%

    Tomorrow, 21 November, Tuesday

    Time Temperature Precipitation Wind Pressure Humidity
    00:00 +23°C° 1.1 mm 2 mps 760 mmHg 93%
    01:00 +22°C° 0.4 mm 1 mps 759 mmHg 94%
    02:00 +22°C° 0.4 mm 1 mps 759 mmHg 95%
    03:00 +22°C° 0.4 mm 1 mps 759 mmHg 96%
    04:00 +22°C° 0.1 mm 1 mps 759 mmHg 96%
    05:00 +20°C° 0.1 mm 2 mps 759 mmHg 97%
    06:00 +20°C° 0.1 mm 2 mps 759 mmHg 97%
    07:00 +24°C° 0 mm 2 mps 760 mmHg 86%
    08:00 +26°C° 0 mm 2 mps 760 mmHg 76%
    09:00 +29°C° 0 mm 2 mps 760 mmHg 65%
    10:00 +30°C° 0 mm 1 mps 760 mmHg 60%
    11:00 +31°C° 0 mm 1 mps 759 mmHg 55%
    12:00 +33°C° 0 mm 1 mps 759 mmHg 50%
    13:00 +32°C° 0 mm 1 mps 758 mmHg 53%
    14:00 +32°C° 0 mm 2 mps 758 mmHg 55%
    15:00 +31°C° 0 mm 2 mps 757 mmHg 58%
    16:00 +29°C° 0 mm 2 mps 757 mmHg 68%
    17:00 +27°C° 0 mm 2 mps 758 mmHg 77%
    18:00 +25°C° 0 mm 2 mps 758 mmHg 87%
    19:00 +25°C° 0 mm 2 mps 758 mmHg 89%
    20:00 +24°C° 0 mm 2 mps 759 mmHg 91%
    21:00 +24°C° 0 mm 2 mps 759 mmHg 93%
    22:00 +23°C° 0 mm 2 mps 759 mmHg 94%
    23:00 +23°C° 0 mm 2 mps 759 mmHg 95%

    Day after tomorrow, 22 November, Wednesday

    Time Temperature Precipitation Wind Pressure Humidity
    00:00 +23°C° 0 mm 2 mps 759 mmHg 95%
    01:00 +23°C° 0 mm 1 mps 759 mmHg 96%
    02:00 +23°C° 0 mm 1 mps 759 mmHg 97%
    03:00 +20°C° 0 mm 0 mps 758 mmHg 97%
    04:00 +22°C° 0 mm 1 mps 759 mmHg 98%
    05:00 +22°C° 0 mm 1 mps 759 mmHg 98%
    06:00 +22°C° 0 mm 1 mps 759 mmHg 98%
    07:00 +24°C° 0 mm 1 mps 759 mmHg 86%
    08:00 +27°C° 0 mm 1 mps 760 mmHg 75%
    09:00 +30°C° 0 mm 1 mps 761 mmHg 63%
    10:00 +31°C° 0 mm 1 mps 760 mmHg 57%
    11:00 +32°C° 0 mm 1 mps 760 mmHg 52%
    12:00 +33°C° 0 mm 1 mps 759 mmHg 47%
    13:00 +33°C° 0 mm 1 mps 759 mmHg 50%
    14:00 +32°C° 0 mm 2 mps 758 mmHg 53%
    15:00 +31°C° 0 mm 2 mps 758 mmHg 56%
    16:00 +29°C° 0.1 mm 2 mps 758 mmHg 66%
    17:00 +27°C° 0.1 mm 2 mps 759 mmHg 77%
    18:00 +25°C° 0.1 mm 2 mps 759 mmHg 87%
    19:00 +24°C° 0.6 mm 2 mps 760 mmHg 91%
    20:00 +23°C° 0.6 mm 2 mps 760 mmHg 94%
    21:00 +23°C° 0.6 mm 2 mps 761 mmHg 97%
    22:00 +21°C° 0.3 mm 2 mps 761 mmHg 98%
    23:00 +21°C° 0.3 mm 3 mps 761 mmHg 98%

    23 November, Thursday

    Time Temperature Precipitation Wind Pressure Humidity
    00:00 +21°C° 0.3 mm 3 mps 761 mmHg 98%
    01:00 +20°C° 0.5 mm 3 mps 760 mmHg 98%
    02:00 +20°C° 0.5 mm 4 mps 760 mmHg 98%
    03:00 +20°C° 0.5 mm 4 mps 760 mmHg 98%
    04:00 +20°C° 0.1 mm 4 mps 760 mmHg 99%
    05:00 +20°C° 0.1 mm 4 mps 760 mmHg 99%
    06:00 +20°C° 0.1 mm 5 mps 760 mmHg 99%
    07:00 +21°C° 0 mm 5 mps 761 mmHg 95%
    08:00 +22°C° 0 mm 5 mps 762 mmHg 91%
    09:00 +23°C° 0 mm 5 mps 762 mmHg 86%
    10:00 +26°C° 0 mm 5 mps 762 mmHg 80%
    11:00 +27°C° 0 mm 5 mps 761 mmHg 73%
    12:00 +28°C° 0 mm 5 mps 761 mmHg 66%
    13:00 +29°C° 0 mm 5 mps 760 mmHg 63%
    14:00 +29°C° 0 mm 4 mps 759 mmHg 60%
    15:00 +29°C° 0 mm 4 mps 758 mmHg 58%
    16:00 +28°C° 0 mm 4 mps 759 mmHg 65%
    17:00 +26°C° 0 mm 4 mps 759 mmHg 72%
    18:00 +23°C° 0 mm 4 mps 759 mmHg 79%
    19:00 +23°C° 0 mm 4 mps 760 mmHg 81%
    20:00 +22°C° 0 mm 5 mps 761 mmHg 84%
    21:00 +22°C° 0 mm 5 mps 761 mmHg 86%
    22:00 +21°C° 0 mm 5 mps 761 mmHg 89%
    23:00 +21°C° 0 mm 5 mps 761 mmHg 92%

    24 November, Friday

    Time Temperature Precipitation Wind Pressure Humidity
    00:00 +20°C° 0 mm 5 mps 761 mmHg 95%
    01:00 +20°C° 0 mm 5 mps 761 mmHg 95%
    02:00 +19°C° 0 mm 5 mps 761 mmHg 96%
    03:00 +19°C° 0 mm 5 mps 760 mmHg 97%
    04:00 +19°C° 0 mm 5 mps 761 mmHg 97%
    05:00 +19°C° 0 mm 5 mps 761 mmHg 97%
    06:00 +19°C° 0 mm 4 mps 762 mmHg 98%
    07:00 +20°C° 0 mm 4 mps 762 mmHg 88%
    08:00 +22°C° 0 mm 4 mps 763 mmHg 79%
    09:00 +25°C° 0 mm 4 mps 763 mmHg 70%
    10:00 +26°C° 0 mm 4 mps 763 mmHg 63%
    11:00 +28°C° 0 mm 3 mps 762 mmHg 56%
    12:00 +29°C° 0 mm 3 mps 761 mmHg 49%
    13:00 +29°C° 0 mm 3 mps 761 mmHg 50%
    14:00 +29°C° 0 mm 3 mps 760 mmHg 51%
    15:00 +29°C° 0 mm 3 mps 759 mmHg 51%
    16:00 +27°C° 0 mm 2 mps 760 mmHg 59%
    17:00 +25°C° 0 mm 2 mps 760 mmHg 67%
    18:00 +23°C° 0 mm 2 mps 760 mmHg 75%
    19:00 +23°C° 0 mm 2 mps 761 mmHg 77%
    20:00 +21°C° 0 mm 2 mps 761 mmHg 78%
    21:00 +21°C° 0 mm 2 mps 762 mmHg 80%
    22:00 +21°C° 0 mm 2 mps 762 mmHg 80%
    23:00 +21°C° 0 mm 3 mps 762 mmHg 80%

    25 November, Saturday

    Time Temperature Precipitation Wind Pressure Humidity
    00:00 +21°C° 0 mm 3 mps 761 mmHg 80%
    01:00 +21°C° 0 mm 3 mps 761 mmHg 83%
    02:00 +20°C° 0 mm 3 mps 761 mmHg 85%
    03:00 +20°C° 0 mm 3 mps 761 mmHg 88%
    04:00 +19°C° 0 mm 3 mps 761 mmHg 90%
    05:00 +19°C° 0 mm 3 mps 762 mmHg 93%
    06:00 +18°C° 0 mm 3 mps 762 mmHg 95%
    07:00 +21°C° 0 mm 3 mps 762 mmHg 85%
    08:00 +24°C° 0 mm 3 mps 763 mmHg 74%
    09:00 +26°C° 0 mm 3 mps 763 mmHg 64%
    10:00 +27°C° 0 mm 3 mps 763 mmHg 59%
    11:00 +29°C° 0 mm 3 mps 762 mmHg 54%
    12:00 +30°C° 0 mm 2 mps 762 mmHg 49%
    13:00 +29°C° 0 mm 2 mps 761 mmHg 52%
    14:00 +29°C° 0 mm 3 mps 761 mmHg 56%
    15:00 +28°C° 0 mm 3 mps 760 mmHg 59%
    16:00 +27°C° 0 mm 3 mps 761 mmHg 65%
    17:00 +25°C° 0 mm 3 mps 761 mmHg 71%
    18:00 +24°C° 0 mm 3 mps 761 mmHg 77%
    19:00 +22°C° 0 mm 3 mps 762 mmHg 80%
    20:00 +21°C° 0 mm 3 mps 762 mmHg 82%
    21:00 +21°C° 0 mm 3 mps 763 mmHg 85%
    22:00 +20°C° 0 mm 3 mps 762 mmHg 86%
    23:00 +20°C° 0 mm 3 mps 762 mmHg 87%
    Show more